Date_and_time,latitude,longitude,wind_speed,RelWindDirFrom,WindDirFrom,air_pressure,air_temperature,relative_humidity,Temp,platform_speed_wrt_ground,air_pressure_at_mean_sea_level,platform_orientation
2019-04-25 23:40,50.6304516666667,-96.9807666666667,14.8,22.8,304,986.39,6.7,68,3.96,0.0,1013.60,360.0
2019-04-25 23:50,50.6304566666667,-96.980775,13.6,24.3,300,986.62,6.7,68,3.91,0.0,1013.83,360.0
2019-04-26 00:00,50.6304466666667,-96.9807733333333,12.8,21.0,300,986.75,6.8,67,3.90,0.0,1013.95,270.0
2019-04-26 00:10,50.6304466666667,-96.980765,12.5,22.6,305,986.95,6.8,67,3.90,0.0,1014.15,270.0
2019-04-26 00:20,50.6304466666667,-96.9807666666667,11.8,19.0,305,987.09,6.8,67,3.96,0.0,1014.30,270.0
2019-04-26 00:30,50.6304483333333,-96.98077,14.2,23.5,304,987.02,6.6,62,3.99,0.0,1014.23,270.0
2019-04-26 00:40,50.6304466666667,-96.98077,12.7,20.1,292,987.27,6.3,62,3.98,0.0,1014.51,270.0
2019-04-26 00:50,50.6304466666667,-96.980775,12.9,18.6,296,987.46,6.5,62,3.97,0.0,1014.70,270.0
2019-04-26 01:00,50.6304466666667,-96.9807783333333,14.5,21.4,309,987.48,6.5,59,3.95,0.0,1014.74,360.0
2019-04-26 01:10,50.6304466666667,-96.98078,11.5,21.8,307,987.78,6.4,57,3.93,0.0,1015.02,360.0
2019-04-26 01:20,50.630425,-96.9807733333333,11.2,18.8,303,987.89,6.1,57,3.96,0.0,1015.12,360.0
2019-04-26 01:30,50.6304333333333,-96.9807783333333,10.1,14.5,303,988.05,5.9,57,4.05,0.0,1015.28,360.0
2019-04-26 01:40,50.6304316666667,-96.9807733333333,10.3,16.2,303,988.18,5.7,57,4.15,0.0,1015.42,360.0
2019-04-26 01:50,50.6304366666667,-96.9807733333333,10.0,15.6,310,988.32,5.6,57,4.25,0.0,1015.57,360.0
2019-04-26 02:00,50.63047,-96.98079,8.3,12.3,313,988.53,5.4,58,4.20,0.0,1015.79,332.3
2019-04-26 02:10,50.6304316666667,-96.9807833333333,9.9,15.4,322,988.57,5.3,57,4.18,0.0,1015.84,332.3
2019-04-26 02:20,50.6304483333333,-96.980795,9.2,16.0,313,988.78,5.0,58,4.24,0.0,1016.08,332.3
2019-04-26 02:30,50.630445,-96.980785,8.1,11.7,305,989.08,4.7,58,4.32,0.0,1016.42,332.3
2019-04-26 02:40,50.630445,-96.98078,8.6,13.7,304,989.29,4.5,59,4.37,0.0,1016.64,332.3
2019-04-26 02:50,50.6304433333333,-96.9807733333333,7.8,13.4,299,989.49,4.2,60,4.42,0.0,1016.85,332.3
2019-04-26 03:00,50.6304483333333,-96.980775,8.2,12.8,303,989.67,4.0,60,4.46,0.0,1017.06,0.0
2019-04-26 03:10,50.630445,-96.9807766666667,6.9,10.4,303,989.80,3.7,61,4.48,0.0,1017.22,0.0
2019-04-26 03:20,50.63043,-96.9807816666667,7.3,11.6,303,989.85,3.5,61,4.51,0.0,1017.29,0.0
2019-04-26 03:30,50.630405,-96.980785,7.4,11.8,305,989.89,3.3,61,4.53,0.0,1017.35,0.0
2019-04-26 03:40,50.63044,-96.9807616666667,7.0,10.4,303,990.01,3.1,61,4.53,0.0,1017.49,0.0
2019-04-26 03:50,50.6304383333333,-96.9807716666667,6.5,9.7,303,990.11,2.9,62,4.53,0.0,1017.61,0.0
2019-04-26 04:00,50.6304416666667,-96.9807716666667,6.9,11.7,301,990.20,2.7,62,4.52,0.0,1017.72,125.3
2019-04-26 04:10,50.6304433333333,-96.9807716666667,7.6,12.9,301,990.23,2.6,62,4.53,0.0,1017.77,125.3
2019-04-26 04:20,50.6304433333333,-96.9807716666667,7.5,10.6,303,990.31,2.5,62,4.54,0.0,1017.87,125.3
2019-04-26 04:30,50.630445,-96.9807733333333,6.6,10.4,302,990.37,2.4,63,4.54,0.0,1017.95,125.3
2019-04-26 04:40,50.6304466666667,-96.9807733333333,6.7,11.4,304,990.39,2.2,64,4.54,0.0,1017.99,125.3
2019-04-26 04:50,50.6304466666667,-96.9807716666667,6.6,11.5,308,990.44,2.0,65,4.53,0.0,1018.07,125.3
2019-04-26 05:00,50.6304566666667,-96.9807766666667,6.4,9.3,303,990.45,1.8,66,4.53,0.0,1018.11,360.0
2019-04-26 05:10,50.6304566666667,-96.980775,6.3,8.7,307,990.39,1.6,67,4.54,0.0,1018.07,360.0
2019-04-26 05:20,50.6304533333333,-96.980775,6.0,9.3,303,990.38,1.4,68,4.54,0.0,1018.08,360.0
2019-04-26 05:30,50.630455,-96.9807733333333,6.6,8.7,295,990.38,1.2,68,4.55,0.0,1018.09,360.0
2019-04-26 05:40,50.6304483333333,-96.980785,5.9,8.0,292,990.42,1.0,68,4.54,0.0,1018.16,360.0
2019-04-26 05:50,50.6304466666667,-96.9807816666667,5.3,7.3,296,990.44,0.8,69,4.55,0.0,1018.20,360.0
2019-04-26 06:00,50.6304433333333,-96.9807766666667,5.3,8.0,280,990.53,0.5,70,4.55,0.0,1018.31,360.0
2019-04-26 06:10,50.630455,-96.98077,5.5,7.9,279,990.59,0.2,71,4.55,0.0,1018.39,360.0
2019-04-26 06:20,50.6304516666667,-96.9807583333333,5.3,6.9,281,990.60,-0.1,72,4.56,0.0,1018.42,360.0
2019-04-26 06:30,50.63046,-96.98076,4.8,6.4,280,990.62,-0.2,73,4.55,0.0,1018.46,360.0
2019-04-26 06:40,50.63045,-96.9807583333333,4.3,6.1,292,990.68,-0.3,74,4.54,0.0,1018.53,360.0
2019-04-26 06:50,50.6304466666667,-96.980755,5.4,7.1,281,990.65,-0.3,74,4.55,0.0,1018.52,360.0
2019-04-26 07:00,50.6304466666667,-96.980755,5.7,7.6,285,990.57,-0.3,74,4.55,0.0,1018.45,54.7
2019-04-26 07:10,50.6304483333333,-96.9807583333333,5.8,7.6,284,990.51,-0.4,75,4.55,0.0,1018.40,54.7
2019-04-26 07:20,50.6304483333333,-96.9807583333333,5.7,7.9,285,990.50,-0.4,75,4.54,0.0,1018.39,54.7
2019-04-26 07:30,50.63045,-96.9807583333333,5.5,7.4,286,990.40,-0.4,75,4.54,0.0,1018.31,54.7
2019-04-26 07:40,50.63045,-96.98076,5.8,7.9,281,990.40,-0.7,77,4.54,0.0,1018.33,54.7
2019-04-26 07:50,50.63045,-96.98076,6.1,8.3,292,990.37,-0.6,77,4.54,0.0,1018.31,54.7
2019-04-26 08:00,50.6304516666667,-96.98076,6.1,8.1,296,990.36,-0.3,75,4.54,0.0,1018.30,90.0
2019-04-26 08:10,50.63045,-96.9807616666667,5.9,8.1,288,990.38,-0.4,76,4.54,0.0,1018.34,90.0
2019-04-26 08:20,50.6304516666667,-96.9807616666667,5.2,6.8,286,990.42,-0.5,76,4.54,0.0,1018.39,90.0
2019-04-26 08:30,50.63045,-96.98077,4.9,6.6,285,990.40,-0.8,78,4.54,0.0,1018.39,90.0
2019-04-26 08:40,50.630455,-96.9807683333333,5.3,7.6,272,990.44,-1.0,80,4.53,0.0,1018.45,90.0
2019-04-26 08:50,50.6304566666667,-96.980765,5.2,7.8,277,990.43,-1.1,82,4.51,0.0,1018.44,90.0
2019-04-26 09:00,50.630455,-96.9807666666667,4.9,6.6,280,990.43,-1.1,82,4.50,0.0,1018.44,14.5
2019-04-26 09:10,50.6304583333333,-96.9807683333333,5.0,6.7,274,990.49,-1.1,83,4.50,0.0,1018.51,14.5
2019-04-26 09:20,50.6304583333333,-96.9807633333333,4.5,6.4,267,990.56,-1.2,84,4.49,0.0,1018.58,14.5
2019-04-26 09:30,50.6304633333333,-96.98076,4.9,6.2,271,990.50,-1.2,84,4.48,0.0,1018.54,14.5
2019-04-26 09:40,50.63045,-96.9807533333333,4.9,6.7,266,990.55,-1.1,84,4.48,0.0,1018.57,14.5
2019-04-26 09:50,50.63045,-96.9807583333333,3.4,5.6,258,990.61,-1.3,85,4.47,0.0,1018.64,14.5
2019-04-26 10:00,50.6304266666667,-96.9807633333333,1.5,3.0,292,990.61,-1.4,87,4.47,0.0,1018.65,360.0
2019-04-26 10:10,50.6304383333333,-96.9807683333333,1.5,2.3,256,990.68,-1.6,88,4.47,0.0,1018.74,360.0
2019-04-26 10:20,50.63044,-96.9807633333333,2.1,3.0,240,990.68,-1.7,89,4.48,0.0,1018.75,360.0
2019-04-26 10:30,50.6304616666667,-96.9807683333333,1.1,2.0,282,990.66,-1.6,90,4.47,0.0,1018.73,360.0
2019-04-26 10:40,50.6304483333333,-96.9807566666667,2.1,3.3,262,990.72,-1.6,89,4.47,0.0,1018.80,360.0
2019-04-26 10:50,50.6304516666667,-96.9807616666667,2.3,4.0,270,990.70,-1.6,90,4.47,0.0,1018.79,360.0
2019-04-26 11:00,50.6304566666667,-96.9807616666667,1.2,2.0,261,990.67,-1.7,90,4.47,0.0,1018.75,90.0
2019-04-26 11:10,50.6304583333333,-96.9807616666667,2.5,5.8,234,990.69,-2.0,93,4.47,0.0,1018.80,90.0
2019-04-26 11:20,50.6304583333333,-96.9807616666667,4.4,6.5,247,990.80,-2.2,93,4.47,0.0,1018.93,90.0
2019-04-26 11:30,50.63046,-96.9807633333333,4.7,6.3,238,990.87,-2.2,93,4.47,0.0,1018.99,90.0
2019-04-26 11:40,50.63046,-96.9807633333333,5.0,7.1,247,990.89,-2.1,93,4.41,0.0,1019.01,90.0
2019-04-26 11:50,50.6304816666667,-96.9807866666667,5.6,7.5,251,990.91,-1.6,91,4.38,0.0,1019.02,90.0
2019-04-26 12:00,50.63047,-96.9807683333333,5.2,7.2,255,991.02,-1.3,90,4.39,0.0,1019.13,360.0
2019-04-26 12:10,50.6304583333333,-96.980765,4.4,7.6,256,991.15,-0.8,87,4.37,0.0,1019.23,360.0
2019-04-26 12:20,50.6304616666667,-96.980765,4.7,6.5,246,991.23,-0.8,88,4.36,0.0,1019.31,360.0
2019-04-26 12:30,50.6304583333333,-96.9807716666667,4.0,5.4,248,991.25,-0.5,89,4.36,0.0,1019.32,360.0
2019-04-26 12:40,50.6304533333333,-96.98077,3.3,5.4,265,991.37,-0.1,90,4.37,0.0,1019.42,360.0
2019-04-26 12:50,50.6304533333333,-96.9807733333333,3.3,4.7,250,991.41,0.1,91,4.39,0.0,1019.46,360.0
2019-04-26 13:00,50.630455,-96.9807733333333,4.4,6.0,244,991.49,0.4,93,4.43,0.0,1019.54,346.7
2019-04-26 13:10,50.630455,-96.9807716666667,4.7,7.3,250,991.53,0.8,95,4.44,0.0,1019.57,346.7
2019-04-26 13:20,50.630455,-96.9807716666667,3.7,6.1,259,991.49,1.3,95,4.45,0.0,1019.51,346.7
2019-04-26 13:30,50.6304583333333,-96.98078,6.1,11.9,247,991.52,2.1,96,4.46,0.0,1019.49,346.7
2019-04-26 13:40,50.6304483333333,-96.9807733333333,7.8,11.5,257,991.49,2.6,97,4.47,0.0,1019.41,346.7
2019-04-26 13:50,50.6304483333333,-96.9807733333333,6.7,9.6,250,991.53,2.4,99,4.47,0.0,1019.43,346.7
2019-04-26 14:00,50.6304483333333,-96.980775,6.2,9.0,251,991.51,2.0,99,4.39,0.0,1019.41,240.8
2019-04-26 14:10,50.6304483333333,-96.9807733333333,5.5,8.6,251,991.49,1.7,100,4.35,0.0,1019.40,240.8
2019-04-26 14:20,50.6304433333333,-96.9807883333333,4.5,6.2,248,991.47,1.7,100,4.34,0.0,1019.37,240.8
2019-04-26 14:30,50.630455,-96.98078,4.3,6.4,239,991.41,1.8,100,4.35,0.0,1019.29,240.8
2019-04-26 14:40,50.6304533333333,-96.9807716666667,5.5,8.2,241,991.44,2.1,100,4.35,0.0,1019.28,240.8
2019-04-26 14:50,50.6304516666667,-96.9807666666667,5.3,8.2,241,991.41,2.3,100,4.35,0.0,1019.24,240.8
2019-04-26 15:00,50.63045,-96.9807666666667,5.8,8.3,239,991.35,2.6,100,4.36,0.0,1019.14,360.0
2019-04-26 15:10,50.630445,-96.9807633333333,5.4,8.9,231,991.22,3.0,100,4.42,0.0,1018.96,360.0
2019-04-26 15:20,50.63044,-96.980745,5.7,8.2,228,991.19,3.3,100,4.45,0.0,1018.87,360.0
2019-04-26 15:30,50.6304483333333,-96.9807483333333,5.0,8.7,234,991.16,3.8,99,4.43,0.0,1018.79,360.0
2019-04-26 15:40,50.6304466666667,-96.9807533333333,6.5,10.1,250,991.10,4.2,98,4.35,0.0,1018.72,360.0
2019-04-26 15:50,50.630445,-96.980755,5.7,8.9,274,990.97,4.9,90,4.32,0.0,1018.57,360.0
2019-04-26 16:00,50.630445,-96.980755,4.3,7.1,236,990.92,4.8,90,4.33,0.0,1018.54,143.4
2019-04-26 16:10,50.63044,-96.980755,5.7,13.4,268,990.88,4.9,89,4.34,0.0,1018.49,143.4
2019-04-26 16:20,50.6304433333333,-96.9807616666667,5.1,10.1,281,990.78,5.7,75,4.33,0.0,1018.34,143.4
2019-04-26 16:30,50.6304483333333,-96.9807633333333,7.3,11.7,293,990.70,6.0,67,4.38,0.0,1018.23,143.4
2019-04-26 16:40,50.6304483333333,-96.9807683333333,4.9,9.3,286,990.67,6.6,62,4.40,0.0,1018.16,143.4
2019-04-26 16:50,50.6304483333333,-96.9807683333333,4.6,9.7,292,990.61,6.8,62,4.36,0.0,1018.07,143.4
2019-04-26 17:00,50.6304516666667,-96.9807766666667,6.6,10.1,72,990.62,5.4,81,4.34,0.0,1018.14,360.0
2019-04-26 17:10,50.63045,-96.98077,8.5,11.2,82,990.60,3.1,99,4.40,0.0,1018.21,360.0
2019-04-26 17:20,50.630445,-96.9807816666667,7.9,10.9,86,990.50,2.4,100,4.43,0.0,1018.13,360.0
2019-04-26 17:30,50.63045,-96.9807766666667,8.2,10.8,91,990.42,2.7,99,4.38,0.0,1018.01,360.0
2019-04-26 17:40,50.6304466666667,-96.98077,7.4,10.1,91,990.41,2.2,100,4.25,0.0,1017.98,360.0
2019-04-26 17:50,50.630445,-96.9807683333333,7.6,9.8,91,990.39,2.8,99,4.19,0.0,1017.94,360.0
2019-04-26 18:00,50.630445,-96.98077,8.1,10.1,103,990.35,2.7,99,4.17,0.0,1017.89,360.0
2019-04-26 18:10,50.6304466666667,-96.9807683333333,8.2,9.4,108,990.23,2.4,100,4.18,0.0,1017.74,360.0
2019-04-26 18:20,50.6304466666667,-96.9807666666667,7.6,9.7,121,990.11,2.4,100,4.25,0.0,1017.60,360.0
2019-04-26 18:30,50.6304466666667,-96.9807666666667,8.9,10.7,119,990.04,2.0,100,4.31,0.0,1017.53,360.0
2019-04-26 18:40,50.6304466666667,-96.9807666666667,7.3,9.5,111,990.04,2.4,100,4.28,0.0,1017.50,360.0
2019-04-26 18:50,50.6304466666667,-96.9807666666667,3.9,7.0,101,990.19,2.9,99,4.30,0.0,1017.69,360.0
2019-04-26 19:00,50.6304466666667,-96.9807666666667,6.7,8.3,99,990.15,3.2,99,4.34,0.0,1017.75,347.4
2019-04-26 19:10,50.6304466666667,-96.9807666666667,1.2,5.8,269,990.21,3.2,97,4.31,0.0,1017.86,347.4
2019-04-26 19:20,50.6304483333333,-96.9807666666667,8.6,16.6,334,990.14,5.1,69,4.24,0.0,1017.67,347.4
2019-04-26 19:30,50.6304483333333,-96.9807666666667,10.9,17.5,320,990.04,6.3,55,4.19,0.0,1017.53,347.4
2019-04-26 19:40,50.6304483333333,-96.9807666666667,8.9,14.5,317,990.17,7.0,53,4.18,0.0,1017.60,347.4
2019-04-26 19:50,50.6304483333333,-96.9807666666667,10.4,16.3,316,990.11,7.0,52,4.17,0.0,1017.54,347.4
2019-04-26 20:00,50.630435,-96.980755,10.6,15.8,312,990.04,7.2,50,4.19,0.0,1017.48,176.8
2019-04-26 20:10,50.63044,-96.9807666666667,11.1,18.5,328,990.06,7.3,51,4.27,0.0,1017.49,176.8
2019-04-26 20:20,50.6304416666667,-96.9807683333333,9.3,16.5,347,990.06,7.1,53,4.30,0.0,1017.52,176.8
2019-04-26 20:30,50.6304433333333,-96.9807733333333,10.7,13.0,33,990.01,5.3,65,4.39,0.0,1017.55,176.8
2019-04-26 20:40,50.630445,-96.9807716666667,7.5,10.5,34,990.18,4.5,68,4.47,0.0,1017.73,176.8
2019-04-26 20:50,50.630445,-96.9807716666667,12.8,20.1,4,990.50,3.7,77,4.49,0.0,1018.09,176.8
2019-04-26 21:00,50.630445,-96.98077,13.0,16.1,359,990.85,2.8,95,4.49,0.0,1018.49,0.0
2019-04-26 21:10,50.630445,-96.9807683333333,12.0,15.2,358,991.04,2.3,99,4.48,0.0,1018.61,0.0
2019-04-26 21:20,50.6304466666667,-96.9807683333333,9.9,13.7,2,991.18,2.1,100,4.46,0.0,1018.71,0.0
2019-04-26 21:30,50.6304466666667,-96.9807683333333,10.4,13.9,26,990.87,2.1,100,4.42,0.0,1018.35,0.0
2019-04-26 21:40,50.6304483333333,-96.9807683333333,11.9,13.9,24,990.72,2.1,100,4.41,0.0,1018.20,0.0
2019-04-26 21:50,50.6304483333333,-96.9807683333333,8.3,10.4,27,990.79,2.1,100,4.41,0.0,1018.26,0.0
2019-04-26 22:00,50.6304483333333,-96.9807683333333,5.7,8.0,17,990.89,2.1,100,4.41,0.0,1018.36,0.0
2019-04-26 22:10,50.6304483333333,-96.98074,6.4,7.9,24,990.80,2.3,99,4.42,0.0,1018.27,0.0
2019-04-26 22:20,50.630445,-96.98078,6.9,8.0,21,990.72,2.6,99,4.44,0.0,1018.26,0.0
2019-04-26 22:30,50.6304466666667,-96.980765,5.1,5.8,17,990.77,3.2,99,4.44,0.0,1018.33,0.0
2019-04-26 22:40,50.6304483333333,-96.980765,6.1,6.6,35,990.79,3.1,99,4.45,0.0,1018.38,0.0
2019-04-26 22:50,50.63045,-96.9807666666667,6.2,6.9,34,990.81,2.6,99,4.49,0.0,1018.48,0.0
2019-04-26 23:00,50.63045,-96.9807683333333,6.0,6.4,38,990.83,2.5,99,4.48,0.0,1018.52,360.0
2019-04-26 23:10,50.6304516666667,-96.9807683333333,5.1,6.3,52,990.81,2.9,99,4.47,0.0,1018.50,360.0
2019-04-26 23:20,50.6304766666667,-96.98079,3.8,5.0,80,990.87,3.7,96,4.50,0.0,1018.52,360.0
2019-04-26 23:30,50.6304616666667,-96.980765,4.3,4.9,75,990.87,4.2,94,4.49,0.0,1018.50,360.0
2019-04-26 23:40,50.6304583333333,-96.9807833333333,3.8,4.6,58,990.82,3.3,99,4.46,0.0,1018.49,360.0
